TimeCST,TemperatureF,Dew PointF,Humidity,Sea Level PressureIn,VisibilityMPH,Wind Direction,Wind SpeedMPH,Gust SpeedMPH,PrecipitationIn,Events,Conditions,WindDirDegrees,DateUTC
12:51 AM,62.1,51.1,67,29.86,10.0,South,17.3,24.2,N/A,,Clear,190,2012-11-26 06:51:00
1:51 AM,60.1,52.0,75,29.85,10.0,SSW,16.1,-,N/A,,Clear,210,2012-11-26 07:51:00
2:51 AM,59.0,53.1,81,29.86,10.0,SSW,13.8,-,N/A,,Clear,210,2012-11-26 08:51:00
3:51 AM,59.0,54.0,83,29.87,10.0,SW,12.7,-,N/A,,Clear,220,2012-11-26 09:51:00
4:51 AM,57.0,55.0,93,29.88,10.0,SSW,11.5,-,N/A,,Clear,210,2012-11-26 10:51:00
5:51 AM,55.9,54.0,93,29.90,8.0,SW,9.2,-,N/A,,Clear,220,2012-11-26 11:51:00
6:51 AM,55.0,53.1,93,29.92,6.0,SW,8.1,-,N/A,,Clear,220,2012-11-26 12:51:00
7:51 AM,53.1,52.0,96,29.94,3.0,SW,3.5,-,N/A,,Clear,230,2012-11-26 13:51:00
9:51 AM,64.0,55.0,73,29.98,10.0,SW,10.4,-,N/A,,Clear,230,2012-11-26 15:51:00
10:51 AM,70.0,52.0,53,29.97,10.0,WSW,6.9,-,N/A,,Clear,240,2012-11-26 16:51:00
11:51 AM,73.9,48.9,41,29.96,10.0,WNW,6.9,-,N/A,,Clear,300,2012-11-26 17:51:00
12:51 PM,78.1,37.9,24,29.93,10.0,NNW,10.4,-,N/A,,Clear,340,2012-11-26 18:51:00
2:51 PM,75.0,36.0,24,29.96,10.0,North,15.0,-,N/A,,Partly Cloudy,360,2012-11-26 20:51:00
3:51 PM,73.0,34.0,24,30.00,10.0,North,13.8,-,N/A,,Clear,360,2012-11-26 21:51:00
4:51 PM,66.9,35.1,31,30.04,10.0,North,18.4,-,N/A,,Clear,10,2012-11-26 22:51:00
5:51 PM,62.1,35.1,37,30.10,10.0,North,18.4,25.3,N/A,,Clear,10,2012-11-26 23:51:00
6:51 PM,60.1,37.9,44,30.15,10.0,NNE,12.7,-,N/A,,Clear,30,2012-11-27 00:51:00
7:51 PM,57.9,37.0,46,30.19,10.0,NNE,15.0,-,N/A,,Clear,30,2012-11-27 01:51:00
8:51 PM,55.9,35.1,45,30.22,10.0,NNE,12.7,-,N/A,,Clear,30,2012-11-27 02:51:00
9:51 PM,54.0,30.9,41,30.25,10.0,NNE,19.6,24.2,N/A,,Clear,30,2012-11-27 03:51:00
10:51 PM,51.1,30.0,44,30.28,10.0,NNE,19.6,26.5,N/A,,Clear,20,2012-11-27 04:51:00
11:51 PM,48.9,28.9,46,30.29,10.0,NNE,16.1,-,N/A,,Clear,30,2012-11-27 05:51:00